This is the latest recevied weather packets stored in our database for station/object KC3ELT-10. If no packets are shown the sender has not sent any weather packets the latest 10 day(s).
| Time | Temp. | Humidity | Pressure | Rain* | Wind** | Luminosity | Snow |
|---|---|---|---|---|---|---|---|
| 1777985579 | 16.11° C | 67% | 1005.1 hPa | 0 mm | 0 m/s | - | - |
| 1777985279 | 16.11° C | 68% | 1005.1 hPa | 0 mm | 1.34 m/s, 190° | - | - |
| 1777984979 | 15.56° C | 68% | 1005 hPa | 0 mm | 1.34 m/s, 181° | - | - |
| 1777984679 | 15.56° C | 70% | 1005 hPa | 0 mm | 2.68 m/s, 188° | - | - |
| 1777984379 | 15° C | 70% | 1005 hPa | 0 mm | 0.45 m/s, 200° | - | - |
| 1777984079 | 15° C | 71% | 1004.9 hPa | 0 mm | 0.89 m/s, 196° | - | - |
| 1777983779 | 15° C | 72% | 1004.9 hPa | 0 mm | 0.89 m/s, 195° | - | - |
| 1777983479 | 14.44° C | 73% | 1004.9 hPa | 0 mm | 1.34 m/s, 188° | - | - |
| 1777983179 | 14.44° C | 72% | 1004.8 hPa | 0 mm | 1.34 m/s, 226° | - | - |
| 1777982879 | 14.44° C | 73% | 1004.8 hPa | 0 mm | 0.89 m/s, 199° | - | - |
| 1777982579 | 13.89° C | 75% | 1004.8 hPa | 0 mm | 0.89 m/s, 169° | - | - |
| 1777982279 | 13.89° C | 75% | 1004.8 hPa | 0 mm | 0.45 m/s, 174° | - | - |
| 1777981979 | 13.33° C | 77% | 1004.8 hPa | 0 mm | 1.79 m/s, 171° | - | - |
| 1777981679 | 13.33° C | 78% | 1004.8 hPa | 0 mm | 0.45 m/s, 189° | - | - |
| 1777981379 | 12.78° C | 79% | 1004.8 hPa | 0 mm | 0.45 m/s, 155° | - | - |
| 1777981079 | 12.78° C | 79% | 1004.8 hPa | 0 mm | 1.34 m/s, 164° | - | - |
| 1777980779 | 12.78° C | 80% | 1004.8 hPa | 0 mm | 2.24 m/s, 140° | - | - |
| 1777980479 | 12.22° C | 80% | 1004.9 hPa | 0 mm | 0.89 m/s, 165° | - | - |
| 1777980179 | 12.22° C | 80% | 1004.9 hPa | 0 mm | 0.45 m/s, 160° | - | - |
| 1777979879 | 12.22° C | 80% | 1004.9 hPa | 0 mm | 0.45 m/s, 183° | - | - |
| 1777979579 | 12.22° C | 81% | 1004.8 hPa | 0 mm | 0.45 m/s, 164° | - | - |
| 1777979279 | 11.67° C | 81% | 1004.8 hPa | 0 mm | 1.34 m/s, 167° | - | - |
| 1777978979 | 11.67° C | 82% | 1004.8 hPa | 0 mm | 0.89 m/s, 150° | - | - |
| 1777978679 | 11.67° C | 83% | 1004.7 hPa | 0 mm | 0.89 m/s, 163° | - | - |
| 1777978379 | 11.67° C | 83% | 1004.7 hPa | 0 mm | 0.45 m/s, 162° | - | - |
* Rain latest hour (hover to see other rain measurements)
** Current wind speed in m/s (hover to see current wind gust speed)